Regional Weather Roundup
Issued by NWS

Home | Current Version | Previous Version | Graphics & Text | Print | Product List | Glossary On
Versions: 1 2 3 4 5 6 7 8 9 10 11 12 13 14 15 16 17 18 19 20 21 22 23 24 25 26 27 28 29 30 31 32 33 34 35 36 37 38 39 40 41 42 43 44 45 46 47 48 49 50
000
ASUS43 KLMK 302110
RWRKY
KENTUCKY REGIONAL WEATHER ROUNDUP
NATIONAL WEATHER SERVICE LOUISVILLE KY
500 PM EDT SUN AUG 30 2015

NOTE "FAIR" INDICATES FEW OR NO CLOUDS BELOW 12,000 FEET
WITH NO SIGNIFICANT WEATHER AND/OR OBSTRUCTIONS TO VISIBILITY.

KYZ001>023-026-027-061>063-070>075-302200-
WESTERN AND SOUTH CENTRAL KENTUCKY

CITY           SKY/WX    TMP DP  RH WIND       PRES   REMARKS
PADUCAH        MOSUNNY   85  69  58 SE3       30.02F
HENDERSON      CLOUDY    79  70  73 S10       30.03R
OWENSBORO      MOSUNNY   84  71  65 S7        30.04F
HOPKINSVILLE   PTSUNNY   82  68  61 S7        30.04F
BOWLING GREEN  MOSUNNY   86  65  49 S9        30.06F
GLASGOW        MOSUNNY   83  62  48 S9        30.08S
$$

KYZ024-025-028>034-038-045-046-053-302200-
NORTH CENTRAL KENTUCKY

CITY           SKY/WX    TMP DP  RH WIND       PRES   REMARKS
LOUISVILLE/SDF PTSUNNY   83  70  64 S7        30.05F
LOUISVILLE/LOU PTSUNNY   81  68  64 S5        30.06F
FORT KNOX      MOSUNNY   85  66  52 SW8       30.05F
$$

KYZ035>037-039>044-047>052-055>060-089>105-302200-
NORTHEAST KENTUCKY

CITY           SKY/WX    TMP DP  RH WIND       PRES   REMARKS
LEXINGTON      PTSUNNY   83  66  56 S10       30.08F
COVINGTON      PTSUNNY   83  63  50 S13       30.06F
FRANKFORT      CLOUDY    83  66  56 SE3       30.06F
$$

KYZ054-064>069-076>088-106>120-302200-
SOUTHEAST KENTUCKY

CITY           SKY/WX    TMP DP  RH WIND       PRES   REMARKS
JACKSON        PTSUNNY   81  62  52 CALM      30.13F
LONDON         PTSUNNY   81  61  50 SW5       30.12F
SOMERSET       FAIR      79  61  53 S5        30.12F
MIDDLESBORO    CLOUDY    78  66  66 CALM      30.13F
MONTICELLO     CLOUDY    82  66  58 CALM      30.14F
$$



USA.gov is the U.S. government's official web portal to all federal, state and local government web resources and services.